TimeCST,TemperatureF,Dew PointF,Humidity,Sea Level PressureIn,VisibilityMPH,Wind Direction,Wind SpeedMPH,Gust SpeedMPH,PrecipitationIn,Events,Conditions,WindDirDegrees,DateUTC
12:12 AM,19.4,12.2,74,30.33,10.0,NNE,4.6,-,N/A,,Clear,20,2013-03-02 06:12:00
12:32 AM,18.9,11.8,74,30.33,10.0,North,4.6,-,N/A,,Clear,360,2013-03-02 06:32:00
12:52 AM,18.5,11.7,75,30.33,10.0,North,4.6,-,N/A,,Clear,10,2013-03-02 06:52:00
1:12 AM,18.3,11.5,75,30.33,10.0,North,3.5,-,N/A,,Clear,10,2013-03-02 07:12:00
1:32 AM,17.8,11.3,76,30.33,10.0,North,4.6,-,N/A,,Clear,360,2013-03-02 07:32:00
1:52 AM,17.6,11.3,76,30.33,10.0,North,3.5,-,N/A,,Clear,360,2013-03-02 07:52:00
2:12 AM,17.6,11.3,76,30.32,10.0,NNE,4.6,-,N/A,,Clear,20,2013-03-02 08:12:00
2:32 AM,16.7,11.1,79,30.33,10.0,North,4.6,-,N/A,,Clear,10,2013-03-02 08:32:00
2:52 AM,16.2,10.9,80,30.33,10.0,North,4.6,-,N/A,,Clear,10,2013-03-02 08:52:00
3:12 AM,15.8,10.8,80,30.33,10.0,North,3.5,-,N/A,,Clear,360,2013-03-02 09:12:00
3:32 AM,15.4,10.6,81,30.33,10.0,North,3.5,-,N/A,,Clear,360,2013-03-02 09:32:00
3:52 AM,14.9,10.4,82,30.33,10.0,Calm,Calm,-,N/A,,Clear,0,2013-03-02 09:52:00
4:12 AM,14.5,10.4,84,30.33,10.0,Calm,Calm,-,N/A,,Clear,0,2013-03-02 10:12:00
4:32 AM,13.8,10.2,86,30.33,10.0,Calm,Calm,-,N/A,,Clear,0,2013-03-02 10:32:00
4:52 AM,13.5,9.9,86,30.34,10.0,NW,3.5,-,N/A,,Clear,320,2013-03-02 10:52:00
5:12 AM,13.1,9.9,87,30.34,10.0,North,3.5,-,N/A,,Clear,350,2013-03-02 11:12:00
5:32 AM,13.1,9.5,86,30.34,10.0,Calm,Calm,-,N/A,,Clear,0,2013-03-02 11:32:00
5:52 AM,13.1,10.0,88,30.33,10.0,Calm,Calm,-,N/A,,Clear,0,2013-03-02 11:52:00
6:32 AM,12.0,9.1,88,30.33,10.0,Calm,Calm,-,N/A,,Clear,0,2013-03-02 12:32:00
6:52 AM,12.2,9.1,88,30.34,10.0,Calm,Calm,-,N/A,,Clear,0,2013-03-02 12:52:00
7:12 AM,11.3,8.2,87,30.35,10.0,Calm,Calm,-,N/A,,Clear,0,2013-03-02 13:12:00
7:32 AM,11.7,8.2,86,30.35,10.0,Calm,Calm,-,N/A,,Clear,0,2013-03-02 13:32:00
7:52 AM,13.1,9.5,86,30.35,10.0,Calm,Calm,-,N/A,,Clear,0,2013-03-02 13:52:00
8:12 AM,13.8,9.5,83,30.35,10.0,Calm,Calm,-,N/A,,Clear,0,2013-03-02 14:12:00
8:32 AM,14.9,10.4,82,30.34,10.0,Calm,Calm,-,N/A,,Clear,0,2013-03-02 14:32:00
8:52 AM,15.8,10.4,79,30.34,10.0,Calm,Calm,-,N/A,,Clear,0,2013-03-02 14:52:00
9:12 AM,17.4,10.4,74,30.34,10.0,Calm,Calm,-,N/A,,Clear,0,2013-03-02 15:12:00
9:32 AM,18.9,11.3,72,30.34,10.0,Calm,Calm,-,N/A,,Clear,0,2013-03-02 15:32:00
9:52 AM,20.5,11.3,68,30.33,10.0,Calm,Calm,-,N/A,,Clear,0,2013-03-02 15:52:00
10:12 AM,21.2,10.9,65,30.32,10.0,ESE,3.5,-,N/A,,Clear,120,2013-03-02 16:12:00
10:32 AM,22.5,9.9,59,30.32,10.0,ESE,5.8,-,N/A,,Clear,110,2013-03-02 16:32:00
10:52 AM,22.8,9.3,56,30.31,10.0,ENE,4.6,-,N/A,,Clear,70,2013-03-02 16:52:00
11:12 AM,23.4,9.0,54,30.31,10.0,ENE,3.5,-,N/A,,Clear,60,2013-03-02 17:12:00
11:32 AM,23.9,8.6,52,30.30,10.0,ENE,3.5,-,N/A,,Clear,70,2013-03-02 17:32:00
11:52 AM,24.8,8.1,49,30.30,10.0,East,5.8,-,N/A,,Clear,90,2013-03-02 17:52:00
12:12 PM,25.5,8.6,49,30.29,10.0,NE,3.5,-,N/A,,Clear,50,2013-03-02 18:12:00
12:32 PM,25.5,8.4,48,30.28,10.0,Calm,Calm,-,N/A,,Clear,0,2013-03-02 18:32:00
12:52 PM,26.2,8.4,47,30.27,10.0,Calm,Calm,-,N/A,,Clear,0,2013-03-02 18:52:00
1:12 PM,25.7,9.0,49,30.27,10.0,Calm,Calm,-,N/A,,Clear,0,2013-03-02 19:12:00
1:32 PM,26.6,7.5,45,30.26,10.0,Calm,Calm,-,N/A,,Clear,0,2013-03-02 19:32:00
1:52 PM,27.1,7.0,43,30.25,10.0,Calm,Calm,-,N/A,,Clear,0,2013-03-02 19:52:00
2:12 PM,27.9,8.6,44,30.25,10.0,Calm,Calm,-,N/A,,Clear,0,2013-03-02 20:12:00
2:32 PM,28.2,3.9,36,30.24,10.0,Calm,Calm,-,N/A,,Clear,0,2013-03-02 20:32:00
2:52 PM,28.6,4.1,35,30.24,10.0,Calm,Calm,-,N/A,,Clear,0,2013-03-02 20:52:00
3:12 PM,28.8,5.0,36,30.23,10.0,Calm,Calm,-,N/A,,Clear,0,2013-03-02 21:12:00
3:32 PM,29.1,5.4,37,30.23,10.0,Calm,Calm,-,N/A,,Clear,0,2013-03-02 21:32:00
3:52 PM,29.3,5.4,36,30.23,10.0,Calm,Calm,-,N/A,,Clear,0,2013-03-02 21:52:00
4:12 PM,29.8,5.2,35,30.22,10.0,Calm,Calm,-,N/A,,Clear,0,2013-03-02 22:12:00
4:32 PM,29.1,9.0,43,30.22,10.0,SSE,4.6,-,N/A,,Clear,150,2013-03-02 22:32:00
4:52 PM,28.4,9.9,46,30.22,10.0,South,4.6,-,N/A,,Clear,170,2013-03-02 22:52:00
5:12 PM,28.4,10.2,47,30.22,10.0,SSE,3.5,-,N/A,,Clear,160,2013-03-02 23:12:00
5:32 PM,28.2,8.8,44,30.21,10.0,SSE,4.6,-,N/A,,Clear,160,2013-03-02 23:32:00
5:52 PM,27.5,9.5,47,30.21,10.0,South,4.6,-,N/A,,Scattered Clouds,180,2013-03-02 23:52:00
6:12 PM,26.6,9.7,49,30.22,10.0,Calm,Calm,-,N/A,,Clear,0,2013-03-03 00:12:00
6:32 PM,26.2,9.5,49,30.22,10.0,Calm,Calm,-,N/A,,Clear,0,2013-03-03 00:32:00
6:52 PM,25.7,10.0,52,30.22,10.0,Calm,Calm,-,N/A,,Scattered Clouds,0,2013-03-03 00:52:00
7:12 PM,24.8,10.2,54,30.22,10.0,Calm,Calm,-,N/A,,Overcast,0,2013-03-03 01:12:00
7:32 PM,24.8,11.1,56,30.22,10.0,Calm,Calm,-,N/A,,Overcast,0,2013-03-03 01:32:00
7:52 PM,24.4,11.1,57,30.20,10.0,Calm,Calm,-,N/A,,Overcast,0,2013-03-03 01:52:00
8:12 PM,25.2,10.2,53,30.20,10.0,Calm,Calm,-,N/A,,Overcast,0,2013-03-03 02:12:00
8:32 PM,24.6,10.8,56,30.20,10.0,Calm,Calm,-,N/A,,Overcast,0,2013-03-03 02:32:00
8:52 PM,24.4,9.7,53,30.20,10.0,Calm,Calm,-,N/A,,Overcast,0,2013-03-03 02:52:00
9:12 PM,24.6,8.1,49,30.20,10.0,Calm,Calm,-,N/A,,Overcast,0,2013-03-03 03:12:00
9:32 PM,23.9,8.8,53,30.19,10.0,Calm,Calm,-,N/A,,Overcast,0,2013-03-03 03:32:00
9:52 PM,24.3,8.2,51,30.19,10.0,Calm,Calm,-,N/A,,Overcast,0,2013-03-03 03:52:00
10:12 PM,24.3,8.8,52,30.19,10.0,Calm,Calm,-,N/A,,Overcast,0,2013-03-03 04:12:00
10:32 PM,23.9,9.0,53,30.18,10.0,Calm,Calm,-,N/A,,Overcast,0,2013-03-03 04:32:00
10:52 PM,23.9,8.6,52,30.18,10.0,Calm,Calm,-,N/A,,Mostly Cloudy,0,2013-03-03 04:52:00
11:12 PM,23.4,8.8,54,30.18,10.0,Calm,Calm,-,N/A,,Overcast,0,2013-03-03 05:12:00
11:32 PM,23.7,9.5,55,30.18,10.0,Calm,Calm,-,N/A,,Overcast,0,2013-03-03 05:32:00
11:52 PM,23.2,10.2,58,30.17,10.0,Calm,Calm,-,N/A,,Overcast,0,2013-03-03 05:52:00